STARLINK-36961, 68900

Orbit data source: Space-Track

STARLINK-36961, 68900 is a payload satellite owned by SpaceX/Seattle (US) in SSO that was launched on Thu, 30 Apr 2026 UTC via an FALCON 9 launch vehicle from the Air Force Western Test Range (AFWTR). Payload-class satellites include a variety of spacecraft equipped with specific instruments for various scientific and technological missions. These include communications satellites like Starlink; space stations such as the ISS; scientific satellites like the Hubble; Earth observation satellites from companies like Planet Labs, Umbra, and HawkEye 360; GPS; miniature CubeSats for education and research; and military/defense satellites.

Loading next visibility...
Identifier
68900, 2026-097F
Orbit
SSO
Country
Flag of USUS
Related business
Manufacturer
SpaceX/Seattle
Mission
Operational spacecraft
Bus & Motor
STARLINK V2MO, Unknown motor
Mass
575 kg wet, ~530 kg dry
Launch date (UTC)
2026-04-30 (2 months ago)
Launch vehicle
FALCON 9
Launch site
Air Force Western Test Range (AFWTR)
Object type
Payload
Rocket body
Debris
Shape & HBR
Unknown shape, 14.5 m
Radar Cross Section
Large (>1 m²)

Expand to show TLE details & history
Last TLE update: 10 hours ago

TLE from 10 hours ago
0 STARLINK-36961
1 68900U 26097F   26171.44298493  .00016838  00000-0  52244-3 0  9993
2 68900  97.2870   6.8879 0002540  96.2552 263.8980 15.33461090  7988
Epoch: 2026-06-20T10:37Z
TLE epoch observation values (Epoch: 2026-06-20T10:37:53.897Z)
Latitude
-0.00006°
Longitude
-61.2442°
Altitude
468.793 km
Speed
7.632 km/s
True Right ascension
00h 27m 33s
True Declination
0° 00' 00"
Sunlit
Object was in daylight at epoch
Visualization orbit readout
Latitude
Unknown
Longitude
Unknown
Altitude
Unknown
Speed
Unknown
Apparent Right ascension
Unknown
Apparent Declination
Unknown
Sunlit
N/A
Visualization observer readout
Local Sidereal Time
07:21:57
Azimuth
Unknown
Elevation
Unknown
Doppler factor
Unknown
Orbital elements
Apogee altitude
464.176 km
Perigee altitude
460.701 km
Semi-major axis
6,840.575 km
Eccentricity
0.00025
Inclination
97.287°
RAAN
6.8879°
Arg. of periapsis
96.2552°
True anomaly
263.86906°
Mean anomaly
263.898°
Eccentric anomaly
263.88353°
Mean motion
3.83623 °/min
Orbital period
93.84 mins
BSTAR
0.00052244
Loading maneuver chart data...
Computing Atmospheric mass density...
Loading historical data...
Loading historical data...
Loading historical data...
Loading historical data...
Loading historical data...
Loading historical data...
Loading historical data...

Documentation

Showing up to 5 results
|